Weather in Biryakovo

Russia / Vologda Oblast     59°35′01″N   41°29′32″E
temp.,
°C
wind,
m/s
gust,
m/s
humid.,
%
clouds,
%
prec.,
mm/h
press.,
hPa
HPBL,
m
13 june, sun
sun1300:00+13ese288527 0.0 1009158
03:00+12ese259735 0.0 100894
06:00+15ese369546 0.5 1008265
09:00+20se4573100 0.7 10071012
12:00+20sse4680100 1.8 1007942
15:00+20s358279 4.2 1007813
18:00+20ssw258615 2.0 1007525
21:00+16sw22927 3.6 100816
14 june, mon
mon1400:00+14sw11955 0.0 100811
03:00+13w22963 0.0 100921
06:00+16wsw13912 0.0 1010135
09:00+22wsw35614 0.0 1011692
12:00+26wsw453730 0.0 10112646
15:00+26wsw463880 0.0 10112725
18:00+18wsw238976 1.1 1013164
21:00+16nw239452 1.4 101463
15 june, tue
tue1500:00+13n119667 0.0 101512
03:00+12ne11966 0.0 101510
06:00+15e11918 0.0 1015135
09:00+20s23667 0.0 1014884
12:00+24sw35415 0.0 10121661
15:00+25wsw46400 0.0 10101946
18:00+23sw255790 0.0 10091271
21:00+18ssw22815 0.0 100918
16 june, wed
wed1600:00+15sw229517 0.6 100848
03:00+14sw11965 0.6 100811
06:00+16wnw369480 0.4 1009317
09:00+17nw376797 0.4 1009567
12:00+21wnw674694 0.0 10101472
15:00+22nw773855 0.0 10112295
18:00+20nnw28405 0.0 10122649
21:00+13nw37575 0.0 1014108
17 june, thu
thu1700:00+11wnw29675 0.0 1016171
03:00+9wnw29727 0.0 1018171
06:00+13wnw39610 0.0 1020298
09:00+18wnw48380 0.0 10211477
12:00+21nw58325 0.0 10212138
15:00+22nw58325 0.0 10222417
18:00+22nw37400 0.0 10221740
21:00+15nw23664 0.0 102352